Location: Alafon
(8.4500°N, 4.2333°E)
Time: 22:32:14
(UTC+00:00)

Explorer 7 - Pass Details

Date: 27 July 2021
Orbit: 484 x 676 km, 50.3° (Epoch: 18 September)

Event Time Altitude Azimuth Distance (km) Brightness Sun altitude
Rises 15:02:08 0° 317° (NW) 2,953 11.2 42.2°
Reaches altitude 10° 15:04:28 10° 314° (NW) 2,063 10.7 41.7°
Maximum altitude 15:09:12 62° 233° (SW) 749 8.5 40.6°
Drops below altitude 10° 15:14:01 10° 153° (SSE) 2,101 9.5 39.4°
Sets 15:16:24 0° 149° (SSE) 3,012 10.2 38.9°
